Theta_e
330 330 332 336 337 338 337 336 337 336 336 339 340 338 335 332 331 331 330 328 323 321
331 332 336 336 337 335 334 336 335 336 335 339 339 336 332 332 332 331 329 324 322 321
332 338 337 337 334 334 333 335 335 333 334 335 336 333 331 331 331 328 324 323 322 322
335 336 336 335 335 334 333 334 335 336 335 336 335 334 331 327 327 325 323 323 323 322
338 336 335 334 335 335 335 337 337 337 337 336 334 331 327 325 327 324 322 322 322 322
339 337 336 337 337 337 337 336 338 337 335 334 332 329 327 327 326 324 322 322 323 322
338 337 337 337 337 336 337 335 335 332 332 329 329 329 328 326 324 323 323 323 323 322
334 334 334 333 334 334 334 332 329 326 326 328 331 330 329 326 323 321 320 321 322 323
333 334 333 332 329 327 326 325 326 323 323 324 324 307 312 321 321 321 320 321 322 325
333 331 330 328 326 323 322 322 322 323 322 320 315 303 306 313 321 321 321 320 319 323
331 329 325 326 324 322 325 326 324 322 320 316 312 303 306 311 321 321 321 321 322 322
328 325 323 322 324 325 327 327 324 320 316 314 314 303 306 314 320 319 318 318 321 322
325 324 323 325 325 326 325 323 322 319 316 311 316 302 304 314 318 318 318 318 316 306
325 326 327 326 326 325 323 323 320 318 316 315 317 311 303 308 321 320 318 317 314 310
Wind_Speed
13 9 7 8 6 7 7 7 8 8 7 8 7 6 6 4 4 5 4 6 4 3
11 9 9 9 8 6 5 6 8 8 7 7 7 7 7 5 5 5 5 5 5 3
10 10 10 10 10 10 8 7 7 6 6 6 6 7 7 5 5 6 4 4 6 4
10 10 10 10 10 10 9 8 8 8 7 7 8 7 6 5 6 6 6 4 6 6
10 11 10 9 10 10 10 9 9 9 8 9 8 8 8 7 6 7 7 7 6 6
10 11 10 11 11 10 11 9 9 9 10 9 9 7 7 7 7 7 7 7 7 6
11 11 11 11 11 11 11 12 10 8 9 7 7 6 6 6 6 5 5 5 5 6
12 12 11 12 11 11 12 9 9 7 7 7 6 4 6 6 6 5 5 4 5 5
12 14 14 12 11 10 10 9 11 8 9 7 5 7 9 7 5 5 6 5 4 4
14 13 13 12 12 10 9 8 9 8 8 8 6 6 9 10 5 5 4 5 5 4
15 13 11 11 10 9 10 11 9 7 8 8 5 6 9 10 6 5 5 4 5 5
13 11 11 11 11 10 10 9 7 7 8 7 5 5 9 8 5 5 5 4 4 5
11 11 12 11 12 7 9 9 7 8 6 8 6 4 9 8 4 5 3 3 5 5
11 12 12 11 10 9 9 10 9 8 6 6 5 5 9 10 5 5 4 3 3 3
Wind_Direction
204 197 183 180 173 177 173 166 158 152 146 166 158 153 150 152 159 157 163 159 154 163
195 173 173 167 167 156 142 152 151 152 161 152 152 147 147 148 155 154 147 162 160 149
183 164 153 160 152 151 142 143 151 145 147 136 143 144 140 140 135 139 159 156 157 165
160 151 154 155 152 154 147 150 149 147 144 146 144 143 143 141 146 171 168 162 170 179
142 145 146 147 147 145 147 144 144 153 150 147 157 159 149 162 171 168 177 183 177 185
144 148 150 147 144 143 138 140 152 150 148 152 162 159 168 157 165 177 188 183 182 175
145 151 148 139 144 142 146 144 146 154 154 151 160 156 147 155 177 184 194 186 177 166
136 136 136 133 137 136 135 139 130 111 110 114 120 137 143 150 149 154 148 159 168 174
137 133 129 122 125 116 114 115 120 115 113 112 98 107 114 121 130 133 138 152 165 168
128 127 130 133 124 118 114 115 116 117 117 102 104 116 124 127 129 133 147 155 166 176
136 134 128 126 116 114 124 126 124 121 110 111 110 125 130 115 108 111 125 153 174 160
137 133 121 117 125 121 122 121 121 120 119 117 121 115 132 112 113 107 91 89 95 124
124 119 127 131 129 130 126 121 118 104 107 122 123 113 142 124 120 115 107 76 86 72
129 134 135 135 129 124 114 110 106 111 108 108 116 99 142 142 139 140 133 122 105 83